Regional Weather Roundup
Issued by NWS

Home | Current Version | Previous Version | Text Only | Print | Product List | Glossary On
Versions: 1 2 3 4 5 6 7 8 9 10 11 12 13 14 15 16 17 18 19 20 21 22 23 24 25 26 27 28 29 30 31 32 33 34 35 36 37 38 39 40 41 42 43 44 45 46 47 48 49 50
000
ASUS44 KFWD 252215
RWRTX
NORTH TEXAS HOURLY WEATHER ROUNDUP
NATIONAL WEATHER SERVICE FORT WORTH TX
400 PM CST TUE NOV 25 2014

NOTE: "FAIR" INDICATES FEW OR NO CLOUDS BELOW 12,000 FEET WITH NO
SIGNIFICANT WEATHER AND/OR OBSTRUCTIONS TO VISIBILITY.

TXZ118-119-252300-
DALLAS/FORT WORTH METROPLEX

CITY           SKY/WX    TMP DP  RH WIND       PRES   REMARKS
DFW AIRPORT    MOSUNNY   61  26  26 W12       30.16F
DALLAS LOVE    MOSUNNY   62  26  25 W7        30.16F
FTW MEACHAM    SUNNY     61  29  29 SW10      30.16F
DAL-EXECUTIVE  SUNNY     63  23  21 W13       30.15F
FTW-ALLIANCE   MOSUNNY   60  25  26 W10       30.16F
FTW-SPINKS     MOSUNNY   63  25  23 W10       30.19F
ARLINGTON      SUNNY     63  20  19 W14       30.17F
GRAND PRAIRIE  SUNNY     63  28  27 W13G18    30.18F
MESQUITE       SUNNY     63  25  23 W9G18     30.18
LANCASTER      SUNNY     62  20  19 W13G20    30.18S
$$

TXZ091>094-102>105-117-120-121-131>134-252300-
NORTH CENTRAL TEXAS

CITY           SKY/WX    TMP DP  RH WIND       PRES   REMARKS
SHRMAN/DENISON SUNNY     60  30  32 W9        30.17S
GAINESVILLE    SUNNY     58  24  28 W9        30.17F
BOWIE          SUNNY     56  23  28 W6        30.16F
BRIDGEPORT     SUNNY     60  30  32 W9        30.18F
DECATUR        SUNNY     58  25  28 W8        30.16F
DENTON         SUNNY     59  25  27 W14       30.16F
MCKINNEY       SUNNY     60  28  29 W9        30.16F
GREENVILLE     SUNNY     61  25  25 W12       30.16S
ROCKWALL       SUNNY     62  27  26 NW13      30.15S
TERRELL        SUNNY     65  28  24 W14       30.16F
WAXAHACHIE     SUNNY     63  29  27 W10G17    30.18S
CLEBURNE       SUNNY     61  25  25 W12       30.19S
GRANBURY       SUNNY     62  27  26 W8        30.19F
$$

TXZ083>090-098>101-113>116-127>130-139>142-154-155-252300-
WESTERN NORTH TEXAS

CITY           SKY/WX    TMP DP  RH WIND       PRES   REMARKS
WICHITA FALLS  SUNNY     55  25  31 W10       30.15F
WF-KICKAPOO    SUNNY     57  23  27 W10G17    30.17F
VERNON         SUNNY     57  23  26 SW12G18   30.13F
ABILENE        SUNNY     60  18  19 W18       30.19F
ABILENE-DYESS  SUNNY     59  17  19 W14       30.18F
BRECKENRIDGE   SUNNY     60  28  28 MISG      30.18F
GRAHAM         SUNNY     59  32  36 SW10      30.16F
MINERAL WELLS    N/A    N/A N/A N/A MISG      30.16F
STEPHENVILLE   SUNNY     60  22  23 W10       30.21F
COMANCHE       SUNNY     60  27  28 W12G20    30.19F
BROWNWOOD      SUNNY     59  23  25 W8        30.20F
COLEMAN        SUNNY     59  31  34 W13       30.20S
BRADY          SUNNY     61  21  21 W16       30.20F
$$

TXZ143>147-156>162-174-175-252300-
CENTRAL TEXAS

CITY           SKY/WX    TMP DP  RH WIND       PRES   REMARKS
WACO           MOSUNNY   64  25  22 W12       30.19F
WACO-TSTC      SUNNY     64  25  22 SW12      30.19F
WACO-MCGREGOR  SUNNY     64  28  25 W14       30.20F
HILLSBORO      SUNNY     64  25  23 W12       30.18S
CORSICANA      SUNNY     65  23  20 W13G24    30.18F HAZE
MEXIA          SUNNY     63  26  24 SW17      30.18F
HEARNE         MOSUNNY   64  29  26 W6        30.22F
CAMERON        SUNNY     65  26  22 NW10      30.20F
TEMPLE         SUNNY     64  25  22 W17G24    30.19F
KILLEEN        SUNNY     62  26  25 W8        30.20F
KILLEEN-SKYLRK SUNNY     64  27  24 W7        30.17F
FORT HOOD      SUNNY     66  26  22 W9        30.20F
GATESVILLE     SUNNY     63  27  25 W8        30.22S
HAMILTON       SUNNY     62  26  26 SW16G25   30.20F
LAMPASAS       SUNNY     62  25  24 W8        30.19F
$$

TXZ095>097-106>112-122>126-135>138-148>153-164>167-252300-
EAST TEXAS

CITY           SKY/WX    TMP DP  RH WIND       PRES   REMARKS
PARIS          SUNNY     61  25  25 W5        30.15F
SULPHUR SPRNGS SUNNY     62  28  27 W9        30.16F
MOUNT PLEASANT MOSUNNY   64  26  24 W12       30.16F
MINEOLA        SUNNY     64  21  19 W9        30.16F
TYLER          SUNNY     64  25  22 W12G22    30.16F
LONGVIEW       MOSUNNY   62  26  25 W6        30.16F
MARSHALL       SUNNY     62  27  26 SW3       30.19S
ATHENS         MOSUNNY   63  27  25 W8        30.15F
PALESTINE      SUNNY     64  25  23 W12       30.19F
JACKSONVILLE   SUNNY     62  24  23 W8        30.19F
HENDERSON      SUNNY     62  29  28 CALM      30.18F
NACOGDOCHES    SUNNY     61  28  29 W9        30.20F
LUFKIN         SUNNY     64  29  26 VRB3      30.20F
$$

SUPPLEMENTAL OBSERVATIONS (CENTRAL)

CITY           SKY/WX    TMP DP  RH WIND       PRES   REMARKS
LAKE TEXOMA      N/A     57  32  38 NW7         N/A
CADDO GRASSLND   N/A     61  23  23 VRB2G10     N/A
PAT MAYSE LAKE   N/A     61  25  25 S1          N/A
ATHENS           N/A     64  27  24 W6G17       N/A
LAKE LIMESTONE   N/A     64  25  22 W9G17       N/A
MCGREGOR         N/A     64  25  22 W10G18      N/A
$$

SUPPLEMENTAL OBSERVATIONS (WEST)

CITY           SKY/WX    TMP DP  RH WIND       PRES   REMARKS
MILLERS CREEK    N/A     55  34  44 SW13        N/A
LBJ GRASSLAND    N/A     61  28  29 SW7         N/A
COMANCHE         N/A     61  28  29 W14         N/A
HAMBY            N/A     61  23  23 W14         N/A
IVIE RESERVOIR   N/A     61  28  29 W9G17       N/A
COLORADO BEND    N/A     63  25  23 W9G23       N/A
$$

SUPPLEMENTAL OBSERVATIONS (EAST)

CITY           SKY/WX    TMP DP  RH WIND       PRES   REMARKS
CLARKSVILLE      N/A     61  27  27 NW3         N/A
TEXARKANA        N/A     63  27  25 SW3         N/A
LINDEN           N/A     63  28  27 SW5         N/A
CADDO LAKE       N/A     63  32  31 CALM        N/A
GILMER           N/A     64  25  22 W7G16       N/A
HENDERSON        N/A     63  27  25 SW7G16      N/A
LUFKIN           N/A     64  32  29 MISG        N/A
N SABINE NF      N/A     61  28  29 MISG        N/A
S SABINE NF      N/A     55  28  35 E3          N/A
$$

SUPPLEMENTAL OBSERVATIONS ARE A COLLECTION OF AUTOMATED INSTRUMENTS
THAT ARE MAINTAINED BY A VARIETY OF FEDERAL AND STATE AGENCIES.
CERTAIN ELEMENTS...SUCH AS HUMIDITY VALUES AND SUSTAINED WIND
SPEEDS...MAY BE APPROXIMATED.



USA.gov is the U.S. government's official web portal to all federal, state and local government web resources and services.